Weather History for PAHN - January, 2013

Change the Weather History Date:

Thursday, January 24, 2013

  Actual Average Record
Temperature  
Mean Temperature 35 °F -  
Max Temperature 37 °F 25 °F 47 °F (1978)
Min Temperature 33 °F 18 °F 5 °F (1997)
Degree Days  
Heating Degree Days 30    
Moisture  
Dew Point 34 °F    
Average Humidity 93    
Maximum Humidity 100    
Minimum Humidity 86    
Precipitation  
Precipitation 0.01 in - - ()
Sea Level Pressure  
Sea Level Pressure 29.60 in    
Wind  
Wind Speed 9 mph (NNE)    
Max Wind Speed 15 mph    
Max Gust Speed 22 mph    
Visibility 9 miles    
Events Rain    
Averages and records for this station are not official NWS values.
T = Trace of Precipitation, MM = Missing Value Source: NWS Daily Summary

Daily Weather History Graph

Daily Weather History Graph

Search for Another Location

Airport or City:

Trip Planner

Search our weather history database for the weather conditions in past years. The results will help you decide how hot, cold, wet, or windy it might be!

Date:

Astronomy

Jan. 24, 2013 Rise Set
Actual Time 8:27 AM AKST 4:01 PM AKST
Civil Twilight 7:39 AM AKST 4:49 PM AKST
Nautical Twilight 6:48 AM AKST 5:40 PM AKST
Astronomical Twilight 6:00 AM AKST 6:28 PM AKST
Moon 2:02 PM AKST (1/24) 6:40 AM AKST (1/24)
Length of Visible Light 9h 10m
Length of Day
7h 33m
Waxing Gibbous, 95% of the Moon is Illuminated
Jan 24
Waxing Gibbous
Jan 26
Full
Feb 3
Last Quarter
Feb 9
New
Feb 17
First Quarter

Hourly Weather History & Observations

Time (AKST) Temp. Windchill Dew Point Humidity Pressure Visibility Wind Dir Wind Speed Gust Speed Precip Events Conditions
12:54 AM 37.0 °F 29.3 °F 34.0 °F 89% 29.65 in 10.0 mi ENE 11.5 mph 21.9 mph N/A   Overcast
1:54 AM 37.0 °F 29.8 °F 34.0 °F 89% 29.67 in 10.0 mi East 10.4 mph 17.3 mph N/A   Overcast
2:54 AM 37.0 °F 30.4 °F 34.0 °F 89% 29.67 in 10.0 mi East 9.2 mph 18.4 mph N/A   Overcast
3:54 AM 37.0 °F 30.4 °F 35.1 °F 93% 29.68 in 10.0 mi ENE 9.2 mph 18.4 mph N/A   Overcast
4:54 AM 37.0 °F 29.8 °F 35.1 °F 93% 29.69 in 10.0 mi East 10.4 mph 17.3 mph N/A   Overcast
5:54 AM 37.0 °F 29.8 °F 35.1 °F 93% 29.68 in 10.0 mi East 10.4 mph 17.3 mph N/A   Overcast
6:54 AM 37.9 °F 30.9 °F 35.1 °F 89% 29.68 in 10.0 mi ENE 10.4 mph 16.1 mph N/A   Overcast
7:36 AM 37.4 °F 32.1 °F 35.6 °F 93% 29.67 in 10.0 mi East 6.9 mph - N/A   Overcast
7:54 AM 37.9 °F 35.5 °F 34.0 °F 86% 29.68 in 10.0 mi Variable 3.5 mph - N/A   Overcast
8:19 AM 37.4 °F 31.4 °F 33.8 °F 87% 29.67 in 10.0 mi East 8.1 mph - N/A   Overcast
8:27 AM 37.4 °F - 33.8 °F 87% 29.68 in 10.0 mi Calm Calm - N/A   Overcast
8:54 AM 37.9 °F 34.4 °F 34.0 °F 86% 29.69 in 10.0 mi Variable 4.6 mph - N/A   Overcast
9:54 AM 37.0 °F 31.6 °F 35.1 °F 93% 29.68 in 10.0 mi East 6.9 mph - N/A   Overcast
10:54 AM 37.0 °F 33.3 °F 35.1 °F 93% 29.67 in 10.0 mi East 4.6 mph - N/A   Overcast
11:39 AM 37.4 °F 34.9 °F 35.6 °F 93% 29.65 in 10.0 mi ESE 3.5 mph - 0.00 in   Overcast
11:50 AM 37.4 °F 33.8 °F 35.6 °F 93% 29.65 in 10.0 mi East 4.6 mph - 0.00 in   Overcast
11:54 AM 37.0 °F 34.5 °F 36.0 °F 96% 29.66 in 10.0 mi East 3.5 mph - 0.00 in Rain Light Rain
12:09 PM 37.4 °F 34.9 °F 35.6 °F 93% 29.65 in 10.0 mi East 3.5 mph - 0.00 in Rain Light Rain
12:54 PM 37.0 °F 33.3 °F 35.1 °F 93% 29.64 in 10.0 mi East 4.6 mph - 0.01 in Rain Light Rain
1:54 PM 34.0 °F 28.8 °F 33.1 °F 96% 29.62 in 10.0 mi West 5.8 mph - 0.00 in   Overcast
1:58 PM 33.8 °F 28.6 °F 33.8 °F 100% 29.61 in 10.0 mi WNW 5.8 mph - N/A   Overcast
2:54 PM 33.1 °F 25.5 °F 33.1 °F 100% 29.60 in 10.0 mi WNW 9.2 mph - N/A   Overcast
3:54 PM 33.1 °F 25.5 °F 33.1 °F 100% 29.57 in 2.0 mi WNW 9.2 mph - 0.00 in   Overcast
4:09 PM 33.8 °F 25.8 °F 33.8 °F 100% 29.56 in 4.0 mi WNW 10.4 mph - 0.00 in   Overcast
4:26 PM 33.8 °F 26.4 °F 33.8 °F 100% 29.55 in 8.0 mi NW 9.2 mph - 0.00 in Rain Light Rain
4:39 PM 33.8 °F 26.4 °F 33.8 °F 100% 29.55 in 7.0 mi NW 9.2 mph - 0.00 in Rain Light Rain
4:54 PM 34.0 °F 25.5 °F 33.1 °F 96% 29.55 in 7.0 mi WNW 11.5 mph - 0.00 in   Overcast
5:54 PM 34.0 °F 26.0 °F 33.1 °F 96% 29.52 in 10.0 mi WNW 10.4 mph - N/A   Overcast
6:54 PM 34.0 °F 25.5 °F 33.1 °F 96% 29.50 in 10.0 mi WNW 11.5 mph - N/A   Overcast
7:54 PM 34.0 °F 24.6 °F 32.0 °F 92% 29.47 in 10.0 mi WNW 13.8 mph - N/A   Overcast
8:54 PM 34.0 °F 25.0 °F 32.0 °F 92% 29.45 in 10.0 mi WNW 12.7 mph - N/A   Overcast
9:54 PM 35.1 °F 25.9 °F 32.0 °F 89% 29.43 in 10.0 mi WNW 13.8 mph - N/A   Overcast
10:54 PM 35.1 °F 25.5 °F 32.0 °F 89% 29.41 in 10.0 mi NW 15.0 mph - N/A   Overcast
11:54 PM 33.1 °F 23.4 °F 30.9 °F 92% 29.39 in 10.0 mi WNW 13.8 mph - N/A   Overcast